Regional Weather Roundup
Issued by NWS Wakefield, VA

Home | Current Version | Previous Version | Graphics & Text | Print | Product List | Glossary On
Versions: 1 2 3 4 5 6 7 8 9 10 11 12 13 14 15 16 17 18 19 20 21 22 23 24 25 26 27 28 29 30 31 32 33 34 35 36 37 38 39 40 41 42 43 44 45 46 47 48 49
000
ASUS41 KAKQ 061110
RWRAKQ

REGIONAL WEATHER ROUNDUP
NATIONAL WEATHER SERVICE WAKEFIELD VA
600 AM EST FRI MAR 06 2015

Note: "fair" indicates few or no clouds below 12,000 feet with no
significant weather and/or obstructions to visibility. * = Denotes
station may not report precipitation (e.g., rain,snow,etc.),
thunder or fog.

VAZ042-051-052>054-056-061200-
NORTHERN VIRGINIA

CITY           SKY/WX    TMP DP  RH WIND       PRES   REMARKS
WASH NATIONAL  PTCLDY    16   1  51 NW13      30.58R WCI   2
DULLES         PTCLDY    11  -1  58 NW6       30.56R
FORT BELVOIR   PTCLDY    14   1  57 VRB5      30.58R
QUANTICO       PTCLDY    15   3  59 N13       30.58R WCI   1
FREDERICKSBRG* PTCLDY    15   6  69 N6        30.57R
STAFFORD*      PTCLDY    11   0  59 CALM      30.61R
WARRENTON      PTCLDY    11   6  77 N6        30.55R
CULPEPER*      PTCLDY    14   1  57 N9        30.55R
MANASSAS*      PTCLDY    10   3  72 NW8       30.57R
LEESBURG*      PTCLDY    12   3  67 NW10      30.57R WCI  -1
WINCHESTER     PTCLDY     7  -2  66 CALM      30.54R
FRONT ROYAL*   FAIR       7   1  78 CALM      30.53R
LURAY*         FAIR       0  -4  85 E3        30.51R FOG
$$

VAZ048-049-060>072-079>083-061200-
CENTRAL AND SOUTH CENTRAL VIRGINIA

CITY           SKY/WX    TMP DP  RH WIND       PRES   REMARKS
RICHMOND       PTCLDY    17   5  59 N14       30.53R WCI   3
CHESTERFIELD*  FAIR      18  -2  41 N12       30.54R WCI   5
PETERSBURG*    PTCLDY    19   8  63 N8        30.54R
HANOVER        PTCLDY    15   5  64 N8        30.55R
TAPPAHANNOCK*  PTCLDY    17   5  60 NW6       30.54R
QUINTON*       FAIR      16   6  64 N7        30.53R
CHARLOTTSVILLE MOCLDY    11   5  77 N3        30.51R
GORDONSVILLE*  FAIR       6   2  82 CALM      30.53R
ORANGE*        MOCLDY    14   3  62 N5        30.54S
LOUISA*        PTCLDY    12   5  73 NE6       30.51R
BUMPASS*       FAIR      15   4  61 N7        30.54R
FARMVILLE*     CLEAR     17  14  89 N6          N/A
CREWE*         FAIR      17   9  71 N3        30.51R
FORT PICKETT*  FAIR      16  10  76 N8        30.50R
CHASE CITY*    FAIR      21  17  84 NE3       30.50R
CLARKSVILLE*   FAIR      21  16  79 N6        30.49R
SOUTH HILL*    PTCLDY    18   9  65 N9        30.55R
LAWRENCEVILLE* FAIR      18   9  65 N7        30.50R
EMPORIA*       FAIR      19  10  68 NW12G17   30.53R WCI   7
$$

VAZ088>098-061200-
SOUTHEAST VIRGINIA

CITY           SKY/WX    TMP DP  RH WIND       PRES   REMARKS
NORFOLK        MOCLDY    25  13  60 N20G31    30.47R WCI  11
VIRGINIA BEACH PTCLDY    25  15  66 N15G26    30.47R WCI  13
NORFOLK NAVAL  MOCLDY    26  15  63 N15       30.50R WCI  14
WEST POINT*    PTCLDY    20  10  66 N3        30.55R
SALUDA*        FAIR      19   9  66 N13G20    30.51R WCI   6
NEWPORT NEWS   CLEAR     23  10  57 N12G18    30.50R WCI  12
LANGLEY AFB    MOCLDY    21  12  68 N12       30.49R WCI   9
FORT EUSTIS    CLEAR     21  11  66 NE9       30.49R
WILLIAMSBURG*    N/A    N/A N/A N/A MISG      30.51R
HR EXEC AP*      N/A    N/A N/A N/A MISG        N/A
FRANKLIN*      CLEAR     21  11  66 N9G17     30.51R
WAKEFIELD      CLEAR     20   9  62 N9        30.51R
$$

VAZ020-022-025-037-045-061200-
WEST CENTRAL AND SOUTHWEST VIRGINIA

CITY           SKY/WX    TMP DP  RH WIND       PRES   REMARKS
STAUNTON*      MOCLDY    -1  -5  85 CALM      30.48R
WAYNESBORO*    FAIR       1  -2  86 CALM      30.44R
HOT SPRINGS VA PTCLDY     4   2  91 NW7       30.20R
LYNCHBURG      PTCLDY    16  12  84 NE6       30.48R
DANVILLE       CLOUDY    24  14  65 N12       30.48R WCI  13
SOUTH BOSTON*  FAIR      21  14  75 NE7       30.51R
MARTINSVILLE   CLEAR     19  10  66 N6        30.48R
ROANOKE        PTCLDY    14   6  70 CALM      30.48R
BLACKSBURG     PTCLDY     6   4  89 W3        30.41R
DUBLIN*        PTCLDY    13   9  84 CALM      30.40R
MARION*        PTCLDY    11   7  81 W6        30.38R
HILLSVILLE*    FAIR      11   7  84 N8        30.32R
RICHLANDS*     LGT SNOW   9   4  82 CALM      30.37R
WISE*          CLOUDY    10   9  92 CALM      30.37R
ABINGDON*      CLOUDY    15  10  82 CALM      30.41R
$$

MDZ021>025-VAZ099-100-061200-
SOUTHERN MARYLAND AND THE DELMARVA PENINSULA

CITY           SKY/WX    TMP DP  RH WIND       PRES   REMARKS
PATUXENT RIVER PTCLDY    16   4  59 NW17      30.53R WCI   0
BAY BRIDGE APT   N/A     18   5  57 N8G17     30.56R
LEONARDTOWN    PTCLDY    16   7  67 CALM      30.55R
DOVER          PTCLDY     9   3  78 N7        30.54R
GEORGETOWN     PTCLDY    15   4  61 N9        30.52R
EASTON         CLEAR     16   7  67 N5        30.58R
CAMBRIDGE      PTCLDY    19   7  58 N13G18    30.53R WCI   7
SALISBURY      PTCLDY    17   6  62 N10       30.51R WCI   5
OCEAN CITY     PTCLDY    17   7  64 N18G25    30.49R WCI   1
WALLOPS ISLAND CLEAR     17   8  67 N12       30.49R WCI   4
ACCOMACK*      CLEAR     19   5  53 N20G28    30.49R WCI   4
$$

NCZ012>017-030>032-061200-
NORTH CENTRAL AND EASTERN NORTH CAROLINA

CITY           SKY/WX    TMP DP  RH WIND       PRES   REMARKS
ROANOKE RAPIDS FAIR      23  10  58 N10G16    30.50R WCI  12
RALEIGH        MOCLDY    26  17  68 NE8G17    30.45R
ELIZABETH CITY CLOUDY    26  17  68 N22       30.45R WCI  12
AHOSKIE*       CLEAR     22  11  63 N15       30.50R WCI   9
EDENTON*       CLOUDY    27  21  78 N13       30.45R WCI  16
CURRITUCK*     MOCLDY    27  16  63 N15G28    30.46R WCI  15
KILL DEVIL HLS CLOUDY    28  20  71 N18G28    30.40S WCI  15
MANTEO         CLOUDY    28  19  70 NE24G35   30.42R WCI  13
CAPE HATTERAS  CLOUDY    31  24  75 N17G36    30.36R WCI  19
TARBORO*       FAIR      25   9  51 N9G20     30.48R
GOLDSBORO      CLOUDY    29  19  66 N15       30.43R WCI  17
WASHINGTON     CLOUDY    28  19  71 N15       30.44R WCI  16
GREENVILLE     CLOUDY    28  16  59 N13G24    30.46R WCI  18
NEW BERN       CLOUDY    30  22  72 N14G22    30.42R WCI  19
WILMINGTON     CLOUDY    32  22  66 N18G28    30.39R WCI  20
$$

VAZ048-061200-
ELSEWHERE

CITY           SKY/WX    TMP DP  RH WIND       PRES   REMARKS
HARRISBURG PA  PTCLDY     8  -1  66 N3        30.55R
BALTIMORE      PTCLDY    10   2  69 NW7       30.55R
ANNAPOLIS      PTCLDY    16   7  67 NW9       30.56R
ANDREWS AFB    PTCLDY    11   1  64 NW9       30.54R
PHILADELPHIA   PTCLDY    12   2  64 N8        30.54R
HENDERSON NC   MOCLDY    21  14  74 CALM      30.47R
GREENSBORO     PTCLDY    21  12  68 N9        30.42R
ROCKY MOUNT    CLEAR     24  12  60 N16       30.47R WCI  11
$$

VAZ100-061200-
MARINE

STATION/POSITION TIME  TEMP    WIND        PRES    WAVE   SWELL
                       AIR SEA DIR/SP/G            HT/PER HT/PER
                 (UTC) (F)     (DEG/KT/KT) (MB)    (FT/S) (FT/S)
BRANDYWINE LGT   1100   17 29   10/ 22/ 27 1033.0F
CAPE MAY NJ      1100   15 32  360/  7/ 15 1032.6R
LEWES DE         1100   19 29   10/ 21/ 25 1033.2R
15NM E FENWICK I 1100   20 35              1031.4R   8/ 7
OCEAN-CITY-INLET 1100   20 32   10/ 19/ 23 1031.7R
WACHAPREAGUE VA  1100   19 36  360/ 10/ 18 1032.1R
THOMAS POINT MD  1100          130/ 14/ 16   N/A
COVE POINT MD    1100   19      10/ 16/ 20 1033.4R
SOLOMONS ISLAND  1100      32                N/A
BISHOPS HEAD MD  1100   18 30  360/  9/ 16 1032.9R
CAMBRIDGE MD     1100   18 32   10/ 11/ 17 1034.0R
LEWISETTA VA     1100   19 32  350/ 11/ 15 1033.6R
RAPPAHANNOCK LGT 1100           10/ 28/ 32 1032.9R
STINGRAY PT      1100   24     360/ 19/ 23   N/A
YORK RVR RNG VA  1100   23     360/ 19/ 23 1029.8F
YORKTOWN VA      1100   21 34  340/ 16/ 19 1032.8R
DOMINION TERM VA 1100   23     360/ 10/ 13 1032.7R
KIPTOPEKE VA     1100      38   20/ 12/ 16   N/A
CHES BAY BRIDGE  1100   25 33  360/ 25/ 30 1031.6R
CAPE HENRY VA    1100   24      10/ 25/ 28 1030.4R
CHESAPEAKE LGHT  1000   25      10/ 28/ 31 1030.3R
WILLOUBY STN VA  1100   24     360/ 16/ 19 1032.7R
S CRANEY ISL VA  1100          360/ 18/ 22 1032.1R
CAPE HENRY BUOY  1100      35                N/A     8/ 7   2/11
1ST LANDING BUOY 1100   25      20/ 19/ 23 1031.1R
OFFSHORE WE BUOY 1100      36                N/A    10/ 8   5/ 8
64NM E OF VA BCH 1100   34 52   10/ 27/ 33 1028.1R  11/ 8
DUCK PIER NC     1100   28 35   10/ 24/ 28 1029.1R
44100 DUCK FRF   1100      37                N/A    10/ 8   2/11
44056 DUCK FRF   1100      35                N/A     9/ 8   2/11
OREGON INLET NC  1100   29 39  360/ 17/ 28 1029.3R
HATTERAS NC      1100      46   10/ 28/ 35 1028.3R
CAPE LOOKOUT NC  1100           20/ 21/ 26 1028.2R
$$


USA.gov is the U.S. government's official web portal to all federal, state and local government web resources and services.